सभी
Great Lakes Airport (Great Lakes, Victoria) YGRL मौसम
There is no TAF data available at YGRL. Showing TAF data for YBNS (24 mi W).
BSJ Terminal Area Forecast (no data for YGRL)
| Here is the undecoded forecast: 2026/05/02 18:48 YBNS 021848Z 0220/0308 04008KT CAVOK PROB30 INTER 0306/0308 VRB15G30KT 4000 TSRA SCT040 FEW070CB RMK T 16 19 25 22 Q 1013 1014 1012 1011 |
There is no METAR data available at YGRL. Showing METAR data for YBNS (24 mi W).
Recent BSJ METAR history (no data for YGRL)
| Date | Time (AEST) | Flight Rules | Wind Dir. | Speed | Type | Height AGL (ft) | Visibility | Temp (°C) | Temp (°F) | Dew Point (°C) | Dew Point (°F) | Rel. Humid. | Pressure | Density Altitude | Remarks |
|---|---|---|---|---|---|---|---|---|---|---|---|---|---|---|---|
| 03-मई | 08:00 | VFR | 70° | 7 kt | 10000 meters | 19° | 66° | 14° | 57° | 73% | 1014 mb | 622 ft | |||
| 03-मई | 07:00 | VFR | 60° | 4 kt | Few |
12,000 |
10000 meters | 17° | 62° | 13° | 55° | 77% | 1014 mb | 382 ft | |
| 03-मई | 06:00 | VFR | 50° | 8 kt | 10000 meters | 16° | 60° | 13° | 55° | 82% | 1014 mb | 262 ft | |||
| 03-मई | 05:00 | VFR | 60° | 5 kt | 10000 meters | 15° | 59° | 12° | 53° | 82% | 1014 mb | 142 ft | |||
| 03-मई | 04:00 | VFR | 50° | 7 kt | Few |
9,400 |
10000 meters | 16° | 60° | 11° | 51° | 72% | 1014 mb | 262 ft | |
| 03-मई | 03:00 | VFR | 50° | 4 kt | Few |
9,900 |
10000 meters | 13° | 55° | 10° | 50° | 82% | 1015 mb | -128 ft | |
| 03-मई | 02:00 | VFR | 40° | 3 kt | 10000 meters | 14° | 57° | 10° | 50° | 77% | 1015 mb | -8 ft | |||
| 03-मई | 01:00 | VFR | 50° | 5 kt | 10000 meters | 15° | 59° | 13° | 55° | 88% | 1016 mb | 83 ft | |||
| 03-मई | 00:00 | VFR | Calm | 10000 meters | 13° | 55° | 11° | 51° | 88% | 1016 mb | -157 ft | ||||
| 02-मई | 23:00 | VFR | Calm | 10000 meters | 14° | 57° | 11° | 51° | 82% | 1017 mb | -67 ft | ||||
| 02-मई | 22:00 | VFR | Calm | 10000 meters | 15° | 59° | 11° | 51° | 77% | 1017 mb | 53 ft | ||||
| 02-मई | 21:00 | VFR | 100° | 2 kt | 10000 meters | 15° | 59° | 10° | 50° | 72% | 1017 mb | 53 ft | |||
| 02-मई | 20:00 | VFR | 50° | 5 kt | 10000 meters | 17° | 62° | 12° | 53° | 72% | 1017 mb | 293 ft | |||
| 02-मई | 19:00 | VFR | 40° | 5 kt | 10000 meters | 18° | 64° | 12° | 53° | 68% | 1018 mb | 383 ft | |||
| 02-मई | 18:00 | VFR | 70° | 7 kt | 10000 meters | 19° | 66° | 11° | 51° | 60% | 1017 mb | 533 ft | |||
| 02-मई | 17:00 | VFR | 80° | 5 kt | 10000 meters | 19° | 66° | 12° | 53° | 64% | 1017 mb | 533 ft | |||
| 02-मई | 16:00 | VFR | 60° | 6 kt | 10000 meters | 20° | 68° | 12° | 53° | 60% | 1017 mb | 653 ft | |||
| 02-मई | 15:00 | VFR | 50° | 8 kt | 10000 meters | 21° | 69° | 11° | 51° | 53% | 1018 mb | 743 ft | |||
| 02-मई | 14:00 | VFR | 20° | 7 kt | 10000 meters | 22° | 71° | 12° | 53° | 53% | 1018 mb | 863 ft | |||
| 02-मई | 13:00 | VFR | 10° | 7 kt | 10000 meters | 21° | 69° | 11° | 51° | 53% | 1019 mb | 714 ft | |||
| 02-मई | 12:00 | VFR | 20° | 7 kt | 10000 meters | 22° | 71° | 11° | 51° | 50% | 1020 mb | 804 ft | |||
| 02-मई | 11:00 | VFR | 20° | 8 kt | 10000 meters | 22° | 71° | 12° | 53° | 53% | 1020 mb | 804 ft | |||
| 02-मई | 10:00 | VFR | 10° | 8 kt | 10000 meters | 22° | 71° | 12° | 53° | 53% | 1021 mb | 775 ft | |||
| 02-मई | 09:00 | VFR | 360° | 6 kt | 10000 meters | 17° | 62° | 11° | 51° | 68% | 1021 mb | 175 ft |
लॉगिन
| Your browser is unsupported. अपना ब्राऊजर अपग्रेड करें |
